Wetterdaten: Woche 20.11.06 - 26.11.06 (KW47)
Datum Zeit Temperatur Luftfeuchte Luftdruck Niederschlag Windrichtung Wind
20.11.2006 00:00 5,9 C 100 % 1022 hPa 0,0 l/m SW 10,0 km/h (2 Bft)
20.11.2006 01:00 5,6 C 100 % 1022 hPa 0,0 l/m W-SW 6,6 km/h (2 Bft)
20.11.2006 02:00 5,4 C 100 % 1023 hPa 0,0 l/m W-SW 5,7 km/h (1 Bft)
20.11.2006 03:00 5,3 C 100 % 1023 hPa 0,0 l/m W-SW 5,3 km/h (1 Bft)
20.11.2006 04:00 5,1 C 100 % 1022 hPa 0,0 l/m SW 6,9 km/h (2 Bft)
20.11.2006 05:00 4,9 C 100 % 1022 hPa 1,0 l/m W-SW 5,5 km/h (1 Bft)
20.11.2006 06:00 4,7 C 100 % 1022 hPa 0,0 l/m W-SW 5,4 km/h (1 Bft)
20.11.2006 07:00 4,4 C 100 % 1022 hPa 0,0 l/m W 3,7 km/h (1 Bft)
20.11.2006 08:00 4,2 C 100 % 1022 hPa 0,0 l/m S 2,2 km/h (1 Bft)
20.11.2006 09:00 4,4 C 100 % 1022 hPa 0,0 l/m S-SW 1,4 km/h (1 Bft)
20.11.2006 10:00 5,5 C 88 % 1022 hPa 0,0 l/m W-SW 4,7 km/h (1 Bft)
20.11.2006 11:00 6,4 C 79 % 1022 hPa 0,0 l/m S-SW 8,3 km/h (2 Bft)
20.11.2006 12:00 7,2 C 71 % 1021 hPa 0,0 l/m S-SW 11,1 km/h (2 Bft)
20.11.2006 13:00 8,3 C 60 % 1020 hPa 0,0 l/m SW 12,1 km/h (2 Bft)
20.11.2006 14:00 8,3 C 60 % 1019 hPa 0,0 l/m S-SW 9,6 km/h (2 Bft)
20.11.2006 15:00 7,4 C 65 % 1018 hPa 0,0 l/m SW 7,6 km/h (2 Bft)
20.11.2006 16:00 5,9 C 73 % 1018 hPa 0,0 l/m S-SW 1,9 km/h (1 Bft)
20.11.2006 17:00 4,0 C 82 % 1017 hPa 0,0 l/m W-SW 3,0 km/h (1 Bft)
20.11.2006 18:00 3,4 C 88 % 1017 hPa 0,0 l/m S-SW 1,4 km/h (1 Bft)
20.11.2006 19:00 4,4 C 76 % 1016 hPa 0,0 l/m S 8,2 km/h (2 Bft)
20.11.2006 20:00 4,0 C 77 % 1016 hPa 0,0 l/m S 5,1 km/h (1 Bft)
20.11.2006 21:00 3,7 C 83 % 1015 hPa 0,0 l/m S-SW 8,5 km/h (2 Bft)
20.11.2006 22:00 3,6 C 90 % 1014 hPa 0,0 l/m S-SW 10,8 km/h (2 Bft)
20.11.2006 23:00 4,5 C 92 % 1013 hPa 0,0 l/m S-SW 8,4 km/h (2 Bft)
21.11.2006 00:00 4,9 C 86 % 1013 hPa 0,0 l/m S-SW 10,7 km/h (2 Bft)
21.11.2006 01:00 5,0 C 83 % 1012 hPa 0,0 l/m S-SW 13,1 km/h (3 Bft)
21.11.2006 02:00 4,3 C 91 % 1011 hPa 0,0 l/m S-SW 11,1 km/h (2 Bft)
21.11.2006 03:00 4,0 C 95 % 1010 hPa 0,0 l/m S-SW 8,2 km/h (2 Bft)
21.11.2006 04:00 4,1 C 92 % 1009 hPa 0,0 l/m S-SW 8,3 km/h (2 Bft)
21.11.2006 05:00 4,0 C 87 % 1008 hPa 0,0 l/m S-SW 9,4 km/h (2 Bft)
21.11.2006 06:00 4,8 C 79 % 1007 hPa 0,0 l/m S-SW 10,7 km/h (2 Bft)
21.11.2006 07:00 6,1 C 86 % 1007 hPa 0,0 l/m S-SW 13,8 km/h (3 Bft)
21.11.2006 08:00 5,6 C 96 % 1007 hPa 1,0 l/m S-SW 13,6 km/h (3 Bft)
21.11.2006 09:00 4,9 C 100 % 1007 hPa 0,0 l/m S-SW 15,1 km/h (3 Bft)
21.11.2006 10:00 5,3 C 100 % 1007 hPa 0,0 l/m S-SW 16,5 km/h (3 Bft)
21.11.2006 11:00 6,5 C 99 % 1006 hPa 0,0 l/m SW 13,9 km/h (3 Bft)
21.11.2006 12:00 7,3 C 91 % 1005 hPa 0,0 l/m S-SW 11,3 km/h (2 Bft)
21.11.2006 13:00 7,4 C 90 % 1004 hPa 0,0 l/m S-SW 13,0 km/h (3 Bft)
21.11.2006 14:00 7,6 C 97 % 1003 hPa 0,0 l/m SW 12,7 km/h (3 Bft)
21.11.2006 15:00 8,2 C 91 % 1003 hPa 0,0 l/m S-SW 14,4 km/h (3 Bft)
21.11.2006 16:00 7,9 C 96 % 1002 hPa 1,0 l/m SW 10,9 km/h (2 Bft)
21.11.2006 17:00 7,3 C 100 % 1002 hPa 0,0 l/m S-SW 12,0 km/h (2 Bft)
21.11.2006 18:00 6,5 C 99 % 1002 hPa 0,0 l/m S-SW 11,2 km/h (2 Bft)
21.11.2006 19:00 5,1 C 100 % 1002 hPa 0,0 l/m S 4,6 km/h (1 Bft)
21.11.2006 20:00 4,8 C 100 % 1002 hPa 0,0 l/m S-SW 2,1 km/h (1 Bft)
21.11.2006 21:00 5,0 C 100 % 1002 hPa 8,0 l/m W-SW 2,3 km/h (1 Bft)
21.11.2006 22:00 4,3 C 100 % 1002 hPa 3,0 l/m S-SW 9,0 km/h (2 Bft)
21.11.2006 23:00 3,5 C 100 % 1002 hPa 0,0 l/m S 10,5 km/h (2 Bft)
22.11.2006 00:00 3,1 C 100 % 1002 hPa 0,0 l/m S-SW 8,5 km/h (2 Bft)
22.11.2006 01:00 3,4 C 100 % 1002 hPa 0,0 l/m S-SW 8,3 km/h (2 Bft)
22.11.2006 02:00 3,3 C 100 % 1002 hPa 0,0 l/m S 2,6 km/h (1 Bft)
22.11.2006 03:00 2,9 C 100 % 1002 hPa 0,0 l/m S-SO 1,4 km/h (1 Bft)
22.11.2006 04:00 2,8 C 100 % 1002 hPa 0,0 l/m SO 1,3 km/h (1 Bft)
22.11.2006 05:00 3,2 C 100 % 1002 hPa 0,0 l/m S-SW 1,9 km/h (1 Bft)
22.11.2006 06:00 4,0 C 100 % 1003 hPa 1,0 l/m W-SW 8,8 km/h (2 Bft)
22.11.2006 07:00 3,8 C 100 % 1004 hPa 0,0 l/m W-SW 7,3 km/h (2 Bft)
22.11.2006 08:00 3,7 C 100 % 1005 hPa 0,0 l/m W-SW 7,3 km/h (2 Bft)
22.11.2006 09:00 3,8 C 100 % 1006 hPa 0,0 l/m W-SW 7,2 km/h (2 Bft)
22.11.2006 10:00 4,0 C 97 % 1007 hPa 0,0 l/m W-SW 8,1 km/h (2 Bft)
22.11.2006 11:00 3,1 C 94 % 1007 hPa 1,0 l/m W 6,7 km/h (2 Bft)
22.11.2006 12:00 3,1 C 99 % 1007 hPa 0,0 l/m W-SW 7,1 km/h (2 Bft)
22.11.2006 13:00 4,7 C 84 % 1007 hPa 0,0 l/m W-SW 7,9 km/h (2 Bft)
22.11.2006 14:00 4,9 C 75 % 1007 hPa 0,0 l/m SW 8,7 km/h (2 Bft)
22.11.2006 15:00 4,4 C 74 % 1007 hPa 0,0 l/m SW 8,9 km/h (2 Bft)
22.11.2006 16:00 4,0 C 76 % 1007 hPa 0,0 l/m SW 7,2 km/h (2 Bft)
22.11.2006 17:00 3,6 C 78 % 1007 hPa 0,0 l/m S-SW 7,0 km/h (2 Bft)
22.11.2006 18:00 3,4 C 78 % 1007 hPa 0,0 l/m S-SW 6,7 km/h (2 Bft)
22.11.2006 19:00 2,2 C 82 % 1007 hPa 0,0 l/m S-SW 3,1 km/h (1 Bft)
22.11.2006 20:00 1,0 C 86 % 1007 hPa 0,0 l/m S-SW 0,8 km/h (0 Bft)
22.11.2006 21:00 -0,0 C 93 % 1007 hPa 0,0 l/m N 0,0 km/h (0 Bft)
22.11.2006 22:00 -0,6 C 97 % 1006 hPa 0,0 l/m N 0,0 km/h (0 Bft)
22.11.2006 23:00 -0,6 C 100 % 1006 hPa 0,0 l/m N 0,0 km/h (0 Bft)
23.11.2006 00:00 -0,7 C 100 % 1006 hPa 0,0 l/m N 0,0 km/h (0 Bft)
23.11.2006 01:00 -0,4 C 100 % 1005 hPa 0,0 l/m S-SW 3,0 km/h (1 Bft)
23.11.2006 02:00 0,1 C 100 % 1005 hPa 0,0 l/m S-SW 1,7 km/h (1 Bft)
23.11.2006 03:00 0,5 C 94 % 1005 hPa 0,0 l/m S-SW 3,7 km/h (1 Bft)
23.11.2006 04:00 0,9 C 89 % 1004 hPa 0,0 l/m SO 0,2 km/h (0 Bft)
23.11.2006 05:00 0,8 C 86 % 1004 hPa 0,0 l/m O-NO 2,1 km/h (1 Bft)
23.11.2006 06:00 0,2 C 89 % 1003 hPa 0,0 l/m O 0,4 km/h (0 Bft)
23.11.2006 07:00 0,4 C 90 % 1004 hPa 0,0 l/m O 1,3 km/h (1 Bft)
23.11.2006 08:00 1,9 C 87 % 1004 hPa 0,0 l/m S 9,2 km/h (2 Bft)
23.11.2006 09:00 3,3 C 86 % 1004 hPa 0,0 l/m S 9,9 km/h (2 Bft)
23.11.2006 10:00 5,4 C 76 % 1004 hPa 0,0 l/m S-SW 13,6 km/h (3 Bft)
23.11.2006 11:00 6,5 C 73 % 1003 hPa 0,0 l/m S-SW 13,2 km/h (3 Bft)
23.11.2006 12:00 7,8 C 76 % 1003 hPa 0,0 l/m S 11,3 km/h (2 Bft)
23.11.2006 13:00 7,9 C 77 % 1003 hPa 0,0 l/m S 11,8 km/h (2 Bft)
23.11.2006 14:00 8,7 C 77 % 1003 hPa 0,0 l/m S-SW 11,4 km/h (2 Bft)
23.11.2006 15:00 9,1 C 72 % 1003 hPa 0,0 l/m S 11,7 km/h (2 Bft)
23.11.2006 16:00 8,4 C 76 % 1003 hPa 0,0 l/m S-SW 11,1 km/h (2 Bft)
23.11.2006 17:00 8,1 C 79 % 1004 hPa 0,0 l/m S-SW 9,4 km/h (2 Bft)
23.11.2006 18:00 8,5 C 76 % 1004 hPa 0,0 l/m S-SW 9,5 km/h (2 Bft)
23.11.2006 19:00 8,7 C 74 % 1004 hPa 0,0 l/m S 2,7 km/h (1 Bft)
23.11.2006 20:00 8,0 C 77 % 1005 hPa 0,0 l/m S-SW 5,6 km/h (1 Bft)
23.11.2006 21:00 7,7 C 82 % 1005 hPa 0,0 l/m S-SW 8,7 km/h (2 Bft)
23.11.2006 22:00 8,5 C 82 % 1005 hPa 0,0 l/m S-SW 11,4 km/h (2 Bft)
23.11.2006 23:00 7,6 C 85 % 1006 hPa 0,0 l/m S-SW 9,4 km/h (2 Bft)
24.11.2006 00:00 9,0 C 75 % 1007 hPa 0,0 l/m S-SW 9,6 km/h (2 Bft)
24.11.2006 01:00 8,3 C 76 % 1007 hPa 0,0 l/m S-SW 9,2 km/h (2 Bft)
24.11.2006 02:00 8,0 C 81 % 1008 hPa 0,0 l/m S-SW 8,4 km/h (2 Bft)
24.11.2006 03:00 8,1 C 85 % 1009 hPa 0,0 l/m S-SW 10,4 km/h (2 Bft)
24.11.2006 04:00 8,2 C 90 % 1008 hPa 0,0 l/m S 9,0 km/h (2 Bft)
24.11.2006 05:00 7,4 C 90 % 1008 hPa 0,0 l/m S-SW 3,7 km/h (1 Bft)
24.11.2006 06:00 6,5 C 97 % 1008 hPa 0,0 l/m N 0,0 km/h (0 Bft)
24.11.2006 07:00 6,1 C 99 % 1009 hPa 0,0 l/m N 0,0 km/h (0 Bft)
24.11.2006 08:00 5,4 C 100 % 1010 hPa 0,0 l/m N 0,0 km/h (0 Bft)
24.11.2006 09:00 6,3 C 100 % 1010 hPa 0,0 l/m S 0,7 km/h (0 Bft)
24.11.2006 10:00 8,7 C 93 % 1010 hPa 0,0 l/m S-SW 2,9 km/h (1 Bft)
24.11.2006 11:00 11,8 C 74 % 1010 hPa 0,0 l/m S-SW 4,3 km/h (1 Bft)
24.11.2006 12:00 13,4 C 68 % 1009 hPa 0,0 l/m O-SO 3,5 km/h (1 Bft)
24.11.2006 13:00 14,4 C 62 % 1008 hPa 0,0 l/m NO 1,8 km/h (1 Bft)
24.11.2006 14:00 15,3 C 54 % 1008 hPa 0,0 l/m O 8,6 km/h (2 Bft)
24.11.2006 15:00 14,0 C 58 % 1008 hPa 0,0 l/m O-NO 3,0 km/h (1 Bft)
24.11.2006 16:00 12,1 C 65 % 1008 hPa 0,0 l/m N 0,0 km/h (0 Bft)
24.11.2006 17:00 10,3 C 73 % 1008 hPa 0,0 l/m NW 2,3 km/h (1 Bft)
24.11.2006 18:00 9,1 C 79 % 1007 hPa 0,0 l/m W-NW 1,4 km/h (1 Bft)
24.11.2006 19:00 7,9 C 86 % 1007 hPa 0,0 l/m W-NW 2,1 km/h (1 Bft)
24.11.2006 20:00 7,4 C 90 % 1007 hPa 0,0 l/m W-NW 2,8 km/h (1 Bft)
24.11.2006 21:00 6,6 C 92 % 1007 hPa 0,0 l/m N 0,0 km/h (0 Bft)
24.11.2006 22:00 5,9 C 96 % 1007 hPa 0,0 l/m NW 0,8 km/h (0 Bft)
24.11.2006 23:00 5,5 C 99 % 1007 hPa 0,0 l/m NW 1,3 km/h (1 Bft)
25.11.2006 00:00 5,5 C 100 % 1007 hPa 0,0 l/m NW 4,2 km/h (1 Bft)
25.11.2006 01:00 5,0 C 100 % 1007 hPa 0,0 l/m N 0,0 km/h (0 Bft)
25.11.2006 02:00 5,1 C 100 % 1007 hPa 0,0 l/m NW 1,7 km/h (1 Bft)
25.11.2006 03:00 5,4 C 100 % 1007 hPa 0,0 l/m N 0,0 km/h (0 Bft)
25.11.2006 04:00 5,7 C 100 % 1007 hPa 0,0 l/m NW 3,7 km/h (1 Bft)
25.11.2006 05:00 5,7 C 100 % 1007 hPa 0,0 l/m NW 2,7 km/h (1 Bft)
25.11.2006 06:00 5,4 C 100 % 1007 hPa 0,0 l/m NW 5,0 km/h (1 Bft)
25.11.2006 07:00 5,5 C 100 % 1008 hPa 0,0 l/m NW 6,1 km/h (2 Bft)
25.11.2006 08:00 5,6 C 100 % 1009 hPa 0,0 l/m NW 4,3 km/h (1 Bft)
25.11.2006 09:00 6,0 C 99 % 1010 hPa 0,0 l/m N 0,0 km/h (0 Bft)
25.11.2006 10:00 7,4 C 95 % 1011 hPa 0,0 l/m N 0,0 km/h (0 Bft)
25.11.2006 11:00 9,5 C 85 % 1011 hPa 0,0 l/m N 0,0 km/h (0 Bft)
25.11.2006 12:00 12,3 C 69 % 1011 hPa 0,0 l/m NW 0,9 km/h (0 Bft)
25.11.2006 13:00 14,4 C 60 % 1011 hPa 0,0 l/m N-NO 0,6 km/h (0 Bft)
25.11.2006 14:00 16,0 C 57 % 1011 hPa 0,0 l/m N 0,0 km/h (0 Bft)
25.11.2006 15:00 15,4 C 66 % 1012 hPa 0,0 l/m W 1,1 km/h (0 Bft)
25.11.2006 16:00 13,0 C 77 % 1013 hPa 0,0 l/m NW 0,6 km/h (0 Bft)
25.11.2006 17:00 10,4 C 87 % 1014 hPa 0,0 l/m N 0,0 km/h (0 Bft)
25.11.2006 18:00 8,9 C 94 % 1015 hPa 0,0 l/m N 0,0 km/h (0 Bft)
25.11.2006 19:00 8,0 C 98 % 1015 hPa 0,0 l/m N 0,0 km/h (0 Bft)
25.11.2006 20:00 8,0 C 100 % 1016 hPa 0,0 l/m N 0,0 km/h (0 Bft)
25.11.2006 21:00 7,8 C 100 % 1016 hPa 0,0 l/m N 0,0 km/h (0 Bft)
25.11.2006 22:00 7,8 C 100 % 1017 hPa 0,0 l/m N 0,0 km/h (0 Bft)
25.11.2006 23:00 7,8 C 100 % 1017 hPa 0,0 l/m N 0,1 km/h (0 Bft)
26.11.2006 00:00 7,8 C 100 % 1018 hPa 0,0 l/m N 0,0 km/h (0 Bft)
26.11.2006 01:00 7,7 C 100 % 1018 hPa 0,0 l/m NW 6,1 km/h (2 Bft)
26.11.2006 02:00 8,1 C 99 % 1019 hPa 0,0 l/m NW 3,4 km/h (1 Bft)
26.11.2006 03:00 7,0 C 99 % 1020 hPa 0,0 l/m N 0,0 km/h (0 Bft)
26.11.2006 04:00 5,8 C 100 % 1020 hPa 0,0 l/m N 0,0 km/h (0 Bft)
26.11.2006 05:00 5,2 C 100 % 1020 hPa 0,0 l/m N 0,0 km/h (0 Bft)
26.11.2006 06:00 5,4 C 100 % 1020 hPa 0,0 l/m W-NW 3,1 km/h (1 Bft)
26.11.2006 07:00 5,7 C 100 % 1020 hPa 0,0 l/m W-NW 5,3 km/h (1 Bft)
26.11.2006 08:00 6,1 C 100 % 1021 hPa 0,0 l/m NW 8,0 km/h (2 Bft)
26.11.2006 09:00 7,2 C 100 % 1021 hPa 0,0 l/m NW 5,8 km/h (1 Bft)
26.11.2006 10:00 9,1 C 100 % 1022 hPa 0,0 l/m NW 5,7 km/h (1 Bft)
26.11.2006 11:00 10,6 C 91 % 1022 hPa 0,0 l/m NW 8,8 km/h (2 Bft)
26.11.2006 12:00 12,3 C 80 % 1022 hPa 0,0 l/m NW 8,2 km/h (2 Bft)
26.11.2006 13:00 14,3 C 70 % 1022 hPa 0,0 l/m NW 4,5 km/h (1 Bft)
26.11.2006 14:00 15,9 C 62 % 1022 hPa 0,0 l/m S-SO 0,6 km/h (0 Bft)
26.11.2006 15:00 14,7 C 69 % 1022 hPa 0,0 l/m S-SW 0,9 km/h (0 Bft)
26.11.2006 16:00 11,9 C 77 % 1023 hPa 0,0 l/m N 0,0 km/h (0 Bft)
26.11.2006 17:00 9,2 C 87 % 1023 hPa 0,0 l/m N 0,0 km/h (0 Bft)
26.11.2006 18:00 7,7 C 93 % 1024 hPa 0,0 l/m N 0,0 km/h (0 Bft)
26.11.2006 19:00 6,5 C 96 % 1024 hPa 0,0 l/m N 0,0 km/h (0 Bft)
26.11.2006 20:00 5,6 C 100 % 1024 hPa 0,0 l/m N 0,0 km/h (0 Bft)
26.11.2006 21:00 4,9 C 100 % 1025 hPa 0,0 l/m NW 1,4 km/h (1 Bft)
26.11.2006 22:00 4,6 C 100 % 1025 hPa 0,0 l/m NW 0,2 km/h (0 Bft)
26.11.2006 23:00 3,7 C 100 % 1025 hPa 0,0 l/m N 0,0 km/h (0 Bft)
Min-Datum _ 23.11.06 24.11.06 21.11.06 - - 20.11.06
_ Min-Zeit 00:30 14:19 19:34 - - 01:37
Minimum _ -0,8 C 52 % 1001 hPa - - 0,0 km/h (0 Bft)
Max-Datum _ 25.11.06 20.11.06 26.11.06 21.11.06 - 21.11.06
_ Max-Zeit 14:40 00:00 21:35 21:03 - 10:34
Maximum _ 16,3 C 100 % 1025 hPa 8,0 l/m - 31,0 km/h
S-SW (5 Bft)
Durchschnitt _ 6,3 C 89 % 1011 hPa #16,0 l/m S-SW 5,3 km/h (1 Bft)

Durchschnitt Minimum Temp.5,9 C
Durchschnitt Maximum Temp.6,8 C